TimeCST,TemperatureF,Dew PointF,Humidity,Sea Level PressureIn,VisibilityMPH,Wind Direction,Wind SpeedMPH,Gust SpeedMPH,PrecipitationIn,Events,Conditions,WindDirDegrees,DateUTC
12:51 AM,50.0,48.9,96,30.12,5.0,South,3.5,-,N/A,Fog,Patches of Fog,180,2014-01-20 06:51:00
1:51 AM,50.0,50.0,100,30.10,4.0,South,5.8,-,N/A,Fog,Patches of Fog,170,2014-01-20 07:51:00
2:01 AM,48.2,48.2,100,30.10,2.0,South,6.9,-,N/A,Fog,Mostly Cloudy,170,2014-01-20 08:01:00
2:10 AM,48.2,48.2,100,30.09,0.8,South,4.6,-,N/A,,Mostly Cloudy,180,2014-01-20 08:10:00
2:38 AM,50.0,48.2,94,30.09,0.2,South,3.5,-,N/A,Fog,Fog,190,2014-01-20 08:38:00
2:51 AM,51.1,50.0,96,30.09,0.2,South,3.5,-,N/A,Fog,Fog,190,2014-01-20 08:51:00
3:21 AM,50.0,48.2,94,30.07,0.1,South,3.5,-,N/A,Fog,Fog,190,2014-01-20 09:21:00
3:51 AM,50.0,48.9,96,30.07,0.1,South,3.5,-,N/A,Fog,Fog,190,2014-01-20 09:51:00
4:51 AM,51.1,48.9,92,30.05,0.1,Calm,Calm,-,N/A,Fog,Fog,0,2014-01-20 10:51:00
5:51 AM,50.0,48.9,96,30.06,0.1,Calm,Calm,-,N/A,Fog,Fog,0,2014-01-20 11:51:00
6:33 AM,48.2,46.4,93,30.06,0.5,WSW,3.5,-,N/A,Fog,Fog,240,2014-01-20 12:33:00
6:44 AM,48.2,46.4,93,30.06,0.2,WSW,3.5,-,N/A,Fog,Fog,240,2014-01-20 12:44:00
6:51 AM,48.9,46.9,93,30.06,0.5,Calm,Calm,-,N/A,Fog,Fog,0,2014-01-20 12:51:00
7:28 AM,48.2,46.4,93,30.06,0.2,Calm,Calm,-,N/A,Fog,Fog,0,2014-01-20 13:28:00
7:51 AM,46.9,46.0,97,30.06,0.1,Calm,Calm,-,N/A,Fog,Fog,0,2014-01-20 13:51:00
8:51 AM,52.0,51.1,97,30.08,0.2,WNW,3.5,-,N/A,Fog,Fog,290,2014-01-20 14:51:00
9:09 AM,53.6,51.8,94,30.08,0.2,WSW,3.5,-,N/A,Fog,Fog,240,2014-01-20 15:09:00
9:23 AM,55.4,53.6,94,30.08,0.5,SW,3.5,-,N/A,Fog,Fog,220,2014-01-20 15:23:00
9:36 AM,55.4,55.4,100,30.08,3.0,SSW,4.6,-,N/A,,Mostly Cloudy,210,2014-01-20 15:36:00
9:51 AM,59.0,57.0,93,30.08,3.0,SSW,10.4,-,N/A,,Mostly Cloudy,200,2014-01-20 15:51:00
9:55 AM,59.0,57.2,94,30.08,7.0,SSW,10.4,-,N/A,,Partly Cloudy,200,2014-01-20 15:55:00
10:51 AM,70.0,59.0,68,30.07,10.0,SSW,13.8,20.7,N/A,,Partly Cloudy,210,2014-01-20 16:51:00
11:51 AM,77.0,55.9,48,30.03,10.0,SSW,17.3,-,N/A,,Partly Cloudy,200,2014-01-20 17:51:00
12:51 PM,80.1,54.0,40,29.98,10.0,SSW,15.0,25.3,N/A,,Partly Cloudy,210,2014-01-20 18:51:00
1:51 PM,82.0,54.0,38,29.93,10.0,South,17.3,-,N/A,,Partly Cloudy,190,2014-01-20 19:51:00
2:51 PM,82.9,52.0,34,29.89,10.0,SSW,13.8,23.0,N/A,,Partly Cloudy,200,2014-01-20 20:51:00
3:51 PM,82.9,52.0,34,29.89,10.0,South,16.1,-,N/A,,Partly Cloudy,190,2014-01-20 21:51:00
4:51 PM,73.9,60.1,62,29.91,10.0,SSE,16.1,-,N/A,,Partly Cloudy,150,2014-01-20 22:51:00
5:51 PM,69.1,59.0,70,29.92,10.0,SSE,13.8,-,N/A,,Scattered Clouds,160,2014-01-20 23:51:00
6:51 PM,64.9,57.9,78,29.93,10.0,SSE,11.5,-,N/A,,Partly Cloudy,160,2014-01-21 00:51:00
7:51 PM,62.1,57.0,84,29.96,10.0,SSE,8.1,-,N/A,,Partly Cloudy,160,2014-01-21 01:51:00
8:51 PM,60.1,55.9,86,29.98,10.0,South,8.1,-,N/A,,Clear,180,2014-01-21 02:51:00
9:51 PM,57.9,54.0,87,30.01,10.0,SSW,3.5,-,N/A,,Clear,200,2014-01-21 03:51:00
10:51 PM,55.9,52.0,87,30.02,10.0,SW,8.1,-,N/A,,Clear,220,2014-01-21 04:51:00
11:51 PM,57.9,52.0,81,30.04,10.0,West,11.5,-,N/A,,Clear,280,2014-01-21 05:51:00